,,PA_Meas_PMT16A,,PR_Meas_QMR101_102,,RH_Meas_QMH101,,SR_Meas_QMS101,,TA_Meas_QMH101,,GenWind,,GenWind,
time,status,PA,status,PR,status,RH,status,SR,status,TA,status,DirAvg,status,SpdAvg,
2010-03-30, 00:00:05,VALID,919.8,VALID,0,VALID,95.2622,VALID,0,VALID,19.9173,VALID,114,VALID,0.710547,
2010-03-30, 00:01:05,VALID,919.783,VALID,0,VALID,95.0335,VALID,0,VALID,19.9758,VALID,114,VALID,0.6875,
2010-03-30, 00:02:05,VALID,919.81,VALID,0,VALID,94.881,VALID,0,VALID,19.9953,VALID,114,VALID,0.473437,
2010-03-30, 00:03:05,VALID,919.784,VALID,0,VALID,94.7743,VALID,0,VALID,20.0148,VALID,114,VALID,0.248047,
2010-03-30, 00:04:05,VALID,919.811,VALID,0,VALID,94.8048,VALID,0,VALID,20.0148,VALID,114,VALID,0,
2010-03-30, 00:05:05,VALID,919.769,VALID,0,VALID,94.82,VALID,0,VALID,20.0148,VALID,114,VALID,0.5125,
2010-03-30, 00:06:05,VALID,919.795,VALID,0,VALID,94.7819,VALID,0,VALID,19.9953,VALID,114,VALID,0.313281,
2010-03-30, 00:07:05,VALID,919.771,VALID,0,VALID,94.8963,VALID,0,VALID,19.9563,VALID,114,VALID,0.298438,
2010-03-30, 00:08:05,VALID,919.766,VALID,0,VALID,94.9878,VALID,0,VALID,19.9563,VALID,114,VALID,0.359375,
2010-03-30, 00:09:05,VALID,919.768,VALID,0,VALID,94.9878,VALID,0,VALID,19.9173,VALID,114,VALID,0.360156,
2010-03-30, 00:10:05,VALID,919.757,VALID,0,VALID,95.0945,VALID,0,VALID,19.8768,VALID,114,VALID,0.134375,
2010-03-30, 00:11:05,VALID,919.768,VALID,0,VALID,95.1402,VALID,0,VALID,19.8768,VALID,114,VALID,0,
2010-03-30, 00:12:05,VALID,919.742,VALID,0,VALID,95.2317,VALID,0,VALID,19.8978,VALID,114,VALID,0,
2010-03-30, 00:13:05,VALID,919.765,VALID,0,VALID,95.2851,VALID,0,VALID,19.8783,VALID,114,VALID,0.230078,
2010-03-30, 00:14:05,VALID,919.731,VALID,0,VALID,95.2698,VALID,0,VALID,19.8783,VALID,114,VALID,0,
2010-03-30, 00:15:05,VALID,919.745,VALID,0,VALID,95.2317,VALID,0,VALID,19.8783,VALID,114,VALID,0,
2010-03-30, 00:16:05,VALID,919.712,VALID,0,VALID,95.2622,VALID,0,VALID,19.8588,VALID,114,VALID,0.364062,
2010-03-30, 00:17:05,VALID,919.717,VALID,0,VALID,95.3156,VALID,0,VALID,19.8573,VALID,114,VALID,0.434766,
2010-03-30, 00:18:05,VALID,919.681,VALID,0,VALID,95.1783,VALID,0,VALID,19.8783,VALID,114,VALID,0.396875,
2010-03-30, 00:19:05,VALID,919.701,VALID,0,VALID,95.1174,VALID,0,VALID,19.8588,VALID,114,VALID,0.434375,
2010-03-30, 00:20:05,VALID,919.66,VALID,0,VALID,95.1479,VALID,0,VALID,19.7988,VALID,114,VALID,0.515234,
2010-03-30, 00:21:05,VALID,919.669,VALID,0,VALID,95.2317,VALID,0,VALID,19.8183,VALID,114,VALID,0.562109,
2010-03-30, 00:22:05,VALID,919.648,VALID,0,VALID,95.2012,VALID,0,VALID,19.8183,VALID,114,VALID,0.560547,
2010-03-30, 00:23:05,VALID,919.656,VALID,0,VALID,95.1555,VALID,0,VALID,19.8378,VALID,114,VALID,0.389062,
2010-03-30, 00:24:05,VALID,919.613,VALID,0,VALID,95.0411,VALID,0,VALID,19.8783,VALID,114,VALID,0.682422,
2010-03-30, 00:25:05,VALID,919.653,VALID,0,VALID,94.8505,VALID,0,VALID,19.8588,VALID,114,VALID,0.696094,
2010-03-30, 00:26:05,VALID,919.657,VALID,0,VALID,94.7362,VALID,0,VALID,19.8798,VALID,114,VALID,0.555859,
2010-03-30, 00:27:05,VALID,919.635,VALID,0,VALID,94.6752,VALID,0,VALID,19.8588,VALID,114,VALID,0.590625,
2010-03-30, 00:28:05,VALID,919.613,VALID,0,VALID,94.6295,VALID,0,VALID,19.8393,VALID,114,VALID,0.75,
2010-03-30, 00:29:05,VALID,919.601,VALID,0,VALID,94.7057,VALID,0,VALID,19.7988,VALID,114,VALID,0.889063,
2010-03-30, 00:30:05,VALID,919.577,VALID,0,VALID,94.8505,VALID,0,VALID,19.8003,VALID,114,VALID,0.832812,
2010-03-30, 00:31:05,VALID,919.567,VALID,0,VALID,94.82,VALID,0,VALID,19.8018,VALID,114,VALID,0.896484,
2010-03-30, 00:32:05,VALID,919.557,VALID,0,VALID,94.6828,VALID,0,VALID,19.8603,VALID,114,VALID,0.770312,
2010-03-30, 00:33:05,VALID,919.549,VALID,0,VALID,94.5075,VALID,0,VALID,19.8978,VALID,114,VALID,0.495703,
2010-03-30, 00:34:05,VALID,919.516,VALID,0,VALID,94.3474,VALID,0,VALID,19.9773,VALID,114,VALID,0.084375,
2010-03-30, 00:35:05,VALID,919.529,VALID,0,VALID,94.2559,VALID,0,VALID,19.9968,VALID,114,VALID,0.34375,
2010-03-30, 00:36:05,VALID,919.514,VALID,0,VALID,94.2864,VALID,0,VALID,20.0163,VALID,114,VALID,0,
2010-03-30, 00:37:05,VALID,919.5,VALID,0,VALID,94.3626,VALID,0,VALID,20.0163,VALID,114,VALID,0,
2010-03-30, 00:38:05,VALID,919.509,VALID,0,VALID,94.3855,VALID,0,VALID,19.9953,VALID,114,VALID,0.327734,
2010-03-30, 00:39:05,VALID,919.502,VALID,0,VALID,94.5227,VALID,0,VALID,19.9968,VALID,114,VALID,0.366016,
2010-03-30, 00:40:05,VALID,919.506,VALID,0,VALID,94.6142,VALID,0,VALID,19.9773,VALID,114,VALID,0.180469,
2010-03-30, 00:41:05,VALID,919.477,VALID,0,VALID,94.7591,VALID,0,VALID,19.9773,VALID,114,VALID,0.391406,
2010-03-30, 00:42:05,VALID,919.496,VALID,0,VALID,94.8429,VALID,0,VALID,19.9578,VALID,114,VALID,0.335547,
2010-03-30, 00:43:05,VALID,919.469,VALID,0,VALID,94.7667,VALID,0,VALID,19.9578,VALID,114,VALID,0.266797,
2010-03-30, 00:44:05,VALID,919.437,VALID,0,VALID,94.5837,VALID,0,VALID,19.9368,VALID,114,VALID,0.00585938,
2010-03-30, 00:45:05,VALID,919.439,VALID,0,VALID,94.5151,VALID,0,VALID,19.9773,VALID,114,VALID,0.278906,
2010-03-30, 00:46:05,VALID,919.395,VALID,0,VALID,94.4541,VALID,0,VALID,19.9548,VALID,114,VALID,0.158984,
2010-03-30, 00:47:05,VALID,919.403,VALID,0,VALID,94.4999,VALID,0,VALID,19.9743,VALID,114,VALID,0,
2010-03-30, 00:48:05,VALID,919.382,VALID,0,VALID,94.4922,VALID,0,VALID,19.9743,VALID,114,VALID,0,
2010-03-30, 00:49:05,VALID,919.344,VALID,0,VALID,94.538,VALID,0,VALID,19.9743,VALID,114,VALID,0,
2010-03-30, 00:50:05,VALID,919.338,VALID,0,VALID,94.4236,VALID,0,VALID,19.9353,VALID,114,VALID,0.238281,
2010-03-30, 00:51:05,VALID,919.345,VALID,0,VALID,94.3321,VALID,0,VALID,19.9353,VALID,114,VALID,0.290234,
2010-03-30, 00:52:05,VALID,919.331,VALID,0,VALID,94.4389,VALID,0,VALID,19.9758,VALID,114,VALID,0.0234375,
2010-03-30, 00:53:05,VALID,919.35,VALID,0,VALID,94.416,VALID,0,VALID,19.9953,VALID,114,VALID,0,
2010-03-30, 00:54:05,VALID,919.326,VALID,0,VALID,94.3931,VALID,0,VALID,19.9758,VALID,114,VALID,0.258984,
2010-03-30, 00:55:05,VALID,919.314,VALID,0,VALID,94.3017,VALID,0,VALID,19.9548,VALID,114,VALID,0,
2010-03-30, 00:56:05,VALID,919.289,VALID,0,VALID,94.2254,VALID,0,VALID,19.9368,VALID,114,VALID,0.289844,
2010-03-30, 00:57:05,VALID,919.278,VALID,0,VALID,94.2407,VALID,0,VALID,19.8978,VALID,114,VALID,0.224219,
2010-03-30, 00:58:05,VALID,919.305,VALID,0,VALID,94.5685,VALID,0,VALID,19.8978,VALID,114,VALID,0.426562,
2010-03-30, 00:59:05,VALID,919.279,VALID,0,VALID,94.8505,VALID,0,VALID,19.8978,VALID,114,VALID,0.065625,
2010-03-30, 01:00:05,VALID,919.272,VALID,0,VALID,94.7514,VALID,0,VALID,19.8768,VALID,114,VALID,0.404297,
2010-03-30, 01:01:05,VALID,919.26,VALID,0,VALID,94.4389,VALID,0,VALID,19.9563,VALID,114,VALID,0.73125,
2010-03-30, 01:02:05,VALID,919.233,VALID,0,VALID,93.9281,VALID,0,VALID,19.9953,VALID,113,VALID,0.898047,
2010-03-30, 01:03:05,VALID,919.223,VALID,0,VALID,93.4631,VALID,0,VALID,20.0733,VALID,113,VALID,0.614844,
2010-03-30, 01:04:05,VALID,919.224,VALID,0,VALID,93.2649,VALID,0,VALID,20.0913,VALID,113,VALID,0.628125,
2010-03-30, 01:05:05,VALID,919.201,VALID,0,VALID,93.0209,VALID,0,VALID,20.0733,VALID,113,VALID,0.482031,
2010-03-30, 01:06:05,VALID,919.206,VALID,0,VALID,93.3335,VALID,0,VALID,20.0538,VALID,113,VALID,0.532031,
2010-03-30, 01:07:05,VALID,919.182,VALID,0,VALID,93.4402,VALID,0,VALID,20.0133,VALID,113,VALID,0.453125,
2010-03-30, 01:08:05,VALID,919.149,VALID,0,VALID,93.4097,VALID,0,VALID,20.0148,VALID,113,VALID,0.321094,
2010-03-30, 01:09:05,VALID,919.153,VALID,0,VALID,93.4783,VALID,0,VALID,19.9743,VALID,113,VALID,0.05,
2010-03-30, 01:10:05,VALID,919.136,VALID,0,VALID,93.3868,VALID,0,VALID,19.9953,VALID,113,VALID,0.142578,
2010-03-30, 01:11:05,VALID,919.099,VALID,0,VALID,93.1658,VALID,0,VALID,20.0148,VALID,113,VALID,0.418359,
2010-03-30, 01:12:05,VALID,919.073,VALID,0,VALID,92.4415,VALID,0,VALID,20.0523,VALID,113,VALID,0.628125,
2010-03-30, 01:13:05,VALID,919.062,VALID,0,VALID,92.1519,VALID,0,VALID,20.1498,VALID,113,VALID,0.375781,
2010-03-30, 01:14:05,VALID,919.036,VALID,0,VALID,91.9231,VALID,0,VALID,20.2293,VALID,113,VALID,0.404297,
2010-03-30, 01:15:05,VALID,919.029,VALID,0,VALID,91.3361,VALID,0,VALID,20.2684,VALID,113,VALID,0.502734,
2010-03-30, 01:16:04,VALID,919.022,VALID,0,VALID,91.0693,VALID,0,VALID,20.3058,VALID,113,VALID,0.566406,
2010-03-30, 01:17:04,VALID,919.003,VALID,0,VALID,91.3209,VALID,0,VALID,20.3058,VALID,113,VALID,0.458984,
2010-03-30, 01:18:04,VALID,918.99,VALID,0,VALID,91.6411,VALID,0,VALID,20.2489,VALID,113,VALID,0.7625,
2010-03-30, 01:19:04,VALID,918.996,VALID,0,VALID,91.7249,VALID,0,VALID,20.1708,VALID,113,VALID,0.973047,
2010-03-30, 01:20:04,VALID,918.961,VALID,0,VALID,92.2052,VALID,0,VALID,20.1108,VALID,112,VALID,0.860937,
2010-03-30, 01:21:04,VALID,918.964,VALID,0,VALID,92.3424,VALID,0,VALID,20.0928,VALID,112,VALID,0.660937,
2010-03-30, 01:22:04,VALID,918.955,VALID,0,VALID,92.5102,VALID,0,VALID,20.0538,VALID,112,VALID,0.526563,
2010-03-30, 01:23:04,VALID,918.955,VALID,0,VALID,92.7007,VALID,0,VALID,19.9938,VALID,112,VALID,0.332031,
2010-03-30, 01:24:04,VALID,918.931,VALID,0,VALID,93.0362,VALID,0,VALID,20.0148,VALID,112,VALID,0.210938,
2010-03-30, 01:25:04,VALID,918.929,VALID,0,VALID,93.2496,VALID,0,VALID,19.9743,VALID,112,VALID,0.387891,
2010-03-30, 01:26:04,VALID,918.93,VALID,0,VALID,93.364,VALID,0,VALID,19.9368,VALID,112,VALID,0.428906,
2010-03-30, 01:27:04,VALID,918.891,VALID,0,VALID,93.4859,VALID,0,VALID,19.9158,VALID,112,VALID,0.785156,
2010-03-30, 01:28:04,VALID,918.863,VALID,0,VALID,93.7147,VALID,0,VALID,19.9173,VALID,112,VALID,0.995313,
2010-03-30, 01:29:04,VALID,918.839,VALID,0,VALID,94.0958,VALID,0,VALID,19.8978,VALID,112,VALID,1.00547,
2010-03-30, 01:30:04,VALID,918.839,VALID,0,VALID,94.4389,VALID,0,VALID,19.8573,VALID,112,VALID,0.812891,
2010-03-30, 01:31:04,VALID,918.801,VALID,0,VALID,94.599,VALID,0,VALID,19.8393,VALID,112,VALID,0.701172,
2010-03-30, 01:32:04,VALID,918.776,VALID,0,VALID,94.7743,VALID,0,VALID,19.8003,VALID,112,VALID,0.872656,
2010-03-30, 01:33:04,VALID,918.769,VALID,0,VALID,94.9268,VALID,0,VALID,19.7808,VALID,112,VALID,0.680078,
2010-03-30, 01:34:04,VALID,918.753,VALID,0,VALID,95.0106,VALID,0,VALID,19.7613,VALID,112,VALID,0.710547,
2010-03-30, 01:35:04,VALID,918.758,VALID,0,VALID,95.0792,VALID,0,VALID,19.7418,VALID,112,VALID,0.889844,
2010-03-30, 01:36:04,VALID,918.753,VALID,0,VALID,95.2088,VALID,0,VALID,19.7208,VALID,112,VALID,1.01602,
2010-03-30, 01:37:04,VALID,918.718,VALID,0,VALID,95.2546,VALID,0,VALID,19.7418,VALID,112,VALID,0.801562,
2010-03-30, 01:38:04,VALID,918.7,VALID,0,VALID,95.2241,VALID,0,VALID,19.7418,VALID,112,VALID,0.806641,
2010-03-30, 01:39:04,VALID,918.648,VALID,0,VALID,95.1479,VALID,0,VALID,19.7808,VALID,112,VALID,0.883203,
2010-03-30, 01:40:04,VALID,918.66,VALID,0,VALID,95.0792,VALID,0,VALID,19.7598,VALID,112,VALID,0.687109,
2010-03-30, 01:41:04,VALID,918.656,VALID,0,VALID,95.0411,VALID,0,VALID,19.7808,VALID,112,VALID,0.585938,
2010-03-30, 01:42:04,VALID,918.655,VALID,0,VALID,95.0488,VALID,0,VALID,19.7808,VALID,112,VALID,0.644141,
2010-03-30, 01:43:04,VALID,918.607,VALID,0,VALID,95.1631,VALID,0,VALID,19.7808,VALID,112,VALID,0.279297,
2010-03-30, 01:44:04,VALID,918.573,VALID,0,VALID,95.2241,VALID,0,VALID,19.7598,VALID,112,VALID,0.435937,
2010-03-30, 01:45:04,VALID,918.577,VALID,0,VALID,95.2165,VALID,0.107441,VALID,19.7598,VALID,112,VALID,0.413672,
2010-03-30, 01:46:04,VALID,918.585,VALID,0,VALID,95.1936,VALID,0,VALID,19.7613,VALID,112,VALID,0.725391,
2010-03-30, 01:47:04,VALID,918.558,VALID,0,VALID,95.186,VALID,0,VALID,19.7598,VALID,112,VALID,0.546484,
2010-03-30, 01:48:04,VALID,918.53,VALID,0,VALID,95.1555,VALID,0,VALID,19.7613,VALID,112,VALID,0.732031,
2010-03-30, 01:49:04,VALID,918.525,VALID,0,VALID,95.1402,VALID,0,VALID,19.7403,VALID,112,VALID,0.751953,
2010-03-30, 01:50:04,VALID,918.511,VALID,0,VALID,95.0716,VALID,0,VALID,19.7613,VALID,112,VALID,0.713672,
2010-03-30, 01:51:04,VALID,918.514,VALID,0,VALID,95.0488,VALID,0,VALID,19.7598,VALID,112,VALID,0.516406,
2010-03-30, 01:52:04,VALID,918.482,VALID,0,VALID,95.125,VALID,0,VALID,19.7808,VALID,112,VALID,0.547656,
2010-03-30, 01:53:04,VALID,918.5,VALID,0,VALID,95.1936,VALID,0,VALID,19.7403,VALID,113,VALID,0.394922,
2010-03-30, 01:54:04,VALID,918.506,VALID,0,VALID,95.1783,VALID,0,VALID,19.7418,VALID,112,VALID,0.569922,
2010-03-30, 01:55:04,VALID,918.485,VALID,0,VALID,95.2241,VALID,0,VALID,19.7028,VALID,112,VALID,0.641016,
2010-03-30, 01:56:04,VALID,918.458,VALID,0,VALID,95.3689,VALID,0,VALID,19.7028,VALID,112,VALID,0.870313,
2010-03-30, 01:57:04,VALID,918.452,VALID,0,VALID,95.4452,VALID,0,VALID,19.7028,VALID,112,VALID,0.693359,
2010-03-30, 01:58:04,VALID,918.436,VALID,0,VALID,95.4833,VALID,0,VALID,19.6818,VALID,112,VALID,0.588672,
2010-03-30, 01:59:04,VALID,918.44,VALID,0,VALID,95.5214,VALID,0,VALID,19.6623,VALID,112,VALID,0.428125,
2010-03-30, 02:00:04,VALID,918.412,VALID,0,VALID,95.529,VALID,0,VALID,19.6638,VALID,112,VALID,0.866016,
2010-03-30, 02:01:04,VALID,918.386,VALID,0,VALID,95.5443,VALID,0,VALID,19.6428,VALID,112,VALID,0.694922,
2010-03-30, 02:02:04,VALID,918.403,VALID,0,VALID,95.6053,VALID,0,VALID,19.6428,VALID,112,VALID,0.619922,
2010-03-30, 02:03:04,VALID,918.379,VALID,0,VALID,95.6053,VALID,0,VALID,19.6428,VALID,112,VALID,0.766797,
2010-03-30, 02:04:04,VALID,918.384,VALID,0,VALID,95.5824,VALID,0,VALID,19.6443,VALID,112,VALID,0.90625,
2010-03-30, 02:05:04,VALID,918.358,VALID,0,VALID,95.6586,VALID,0,VALID,19.6248,VALID,112,VALID,0.829297,
2010-03-30, 02:06:04,VALID,918.312,VALID,0,VALID,95.6434,VALID,0,VALID,19.6233,VALID,112,VALID,0.633594,
2010-03-30, 02:07:04,VALID,918.378,VALID,0,VALID,95.6891,VALID,0,VALID,19.6443,VALID,112,VALID,0.787891,
2010-03-30, 02:08:04,VALID,918.33,VALID,0,VALID,95.6891,VALID,0,VALID,19.6443,VALID,112,VALID,0.766406,
2010-03-30, 02:09:04,VALID,918.341,VALID,0,VALID,95.6891,VALID,0,VALID,19.6443,VALID,112,VALID,0.721484,
2010-03-30, 02:10:04,VALID,918.357,VALID,0,VALID,95.6967,VALID,0,VALID,19.6443,VALID,112,VALID,0.811719,
2010-03-30, 02:11:04,VALID,918.351,VALID,0,VALID,95.6891,VALID,0,VALID,19.6443,VALID,112,VALID,0.74375,
2010-03-30, 02:12:04,VALID,918.343,VALID,0,VALID,95.7425,VALID,0,VALID,19.6248,VALID,112,VALID,0.90625,
2010-03-30, 02:13:04,VALID,918.379,VALID,0,VALID,95.7806,VALID,0,VALID,19.6038,VALID,112,VALID,0.621484,
2010-03-30, 02:14:04,VALID,918.388,VALID,0,VALID,95.7958,VALID,0,VALID,19.6248,VALID,112,VALID,0.748438,
2010-03-30, 02:15:04,VALID,918.371,VALID,0,VALID,95.8111,VALID,0,VALID,19.6053,VALID,112,VALID,0.766406,
2010-03-30, 02:16:04,VALID,918.372,VALID,0,VALID,95.8568,VALID,0,VALID,19.5843,VALID,112,VALID,0.750781,
2010-03-30, 02:17:04,VALID,918.341,VALID,0,VALID,95.8873,VALID,0,VALID,19.6053,VALID,112,VALID,0.904297,
2010-03-30, 02:18:04,VALID,918.329,VALID,0,VALID,95.8645,VALID,0,VALID,19.6248,VALID,113,VALID,0.823438,
2010-03-30, 02:19:04,VALID,918.328,VALID,0,VALID,95.8492,VALID,0,VALID,19.6248,VALID,113,VALID,0.922656,
2010-03-30, 02:20:04,VALID,918.338,VALID,0,VALID,95.834,VALID,0,VALID,19.6248,VALID,113,VALID,0.795313,
2010-03-30, 02:21:04,VALID,918.298,VALID,0,VALID,95.7196,VALID,0,VALID,19.6248,VALID,113,VALID,0.781641,
2010-03-30, 02:22:04,VALID,918.302,VALID,0,VALID,95.6891,VALID,0,VALID,19.6248,VALID,113,VALID,1.11914,
2010-03-30, 02:23:04,VALID,918.294,VALID,0,VALID,95.6891,VALID,0,VALID,19.6248,VALID,113,VALID,1.23398,
2010-03-30, 02:24:04,VALID,918.295,VALID,0,VALID,95.5976,VALID,0,VALID,19.6248,VALID,113,VALID,1.17305,
2010-03-30, 02:25:04,VALID,918.268,VALID,0,VALID,95.5443,VALID,0,VALID,19.6248,VALID,113,VALID,1.04805,
2010-03-30, 02:26:04,VALID,918.302,VALID,0,VALID,95.5062,VALID,0,VALID,19.6053,VALID,113,VALID,0.575781,
2010-03-30, 02:27:04,VALID,918.302,VALID,0,VALID,95.468,VALID,0,VALID,19.6053,VALID,113,VALID,1.0207,
2010-03-30, 02:28:04,VALID,918.282,VALID,0,VALID,95.468,VALID,0,VALID,19.6053,VALID,113,VALID,1.19883,
2010-03-30, 02:29:04,VALID,918.251,VALID,0,VALID,95.4833,VALID,0,VALID,19.6053,VALID,113,VALID,1.01055,
2010-03-30, 02:30:04,VALID,918.225,VALID,0,VALID,95.4375,VALID,0,VALID,19.6053,VALID,113,VALID,1.13789,
2010-03-30, 02:31:04,VALID,918.227,VALID,0,VALID,95.3918,VALID,0,VALID,19.6053,VALID,113,VALID,1.08164,
2010-03-30, 02:32:04,VALID,918.259,VALID,0,VALID,95.3308,VALID,0,VALID,19.6248,VALID,113,VALID,0.730469,
2010-03-30, 02:33:04,VALID,918.212,VALID,0,VALID,95.2546,VALID,0,VALID,19.6053,VALID,113,VALID,0.999609,
2010-03-30, 02:34:04,VALID,918.232,VALID,0,VALID,95.1555,VALID,0,VALID,19.5858,VALID,113,VALID,0.690234,
2010-03-30, 02:35:04,VALID,918.208,VALID,0,VALID,95.125,VALID,0,VALID,19.5858,VALID,113,VALID,0.953125,
2010-03-30, 02:36:04,VALID,918.206,VALID,0,VALID,95.064,VALID,0,VALID,19.5648,VALID,113,VALID,0.871484,
2010-03-30, 02:37:04,VALID,918.202,VALID,0,VALID,95.0106,VALID,0,VALID,19.5648,VALID,113,VALID,1.12812,
2010-03-30, 02:38:04,VALID,918.206,VALID,0,VALID,94.9649,VALID,0,VALID,19.5858,VALID,113,VALID,0.928906,
2010-03-30, 02:39:04,VALID,918.226,VALID,0,VALID,94.9954,VALID,0,VALID,19.5858,VALID,113,VALID,0.734766,
2010-03-30, 02:40:04,VALID,918.213,VALID,0,VALID,95.0183,VALID,0,VALID,19.5663,VALID,113,VALID,0.701563,
2010-03-30, 02:41:04,VALID,918.221,VALID,0,VALID,95.0259,VALID,0,VALID,19.5663,VALID,113,VALID,0.735547,
2010-03-30, 02:42:04,VALID,918.219,VALID,0,VALID,95.0259,VALID,0,VALID,19.5468,VALID,113,VALID,0.605469,
2010-03-30, 02:43:04,VALID,918.224,VALID,0,VALID,95.1174,VALID,0,VALID,19.5273,VALID,113,VALID,0.732031,
2010-03-30, 02:44:04,VALID,918.209,VALID,0,VALID,95.1479,VALID,0,VALID,19.5273,VALID,113,VALID,0.928516,
2010-03-30, 02:45:04,VALID,918.187,VALID,0,VALID,95.1479,VALID,0,VALID,19.5273,VALID,113,VALID,1.00195,
2010-03-30, 02:46:04,VALID,918.188,VALID,0,VALID,95.1479,VALID,0,VALID,19.5468,VALID,113,VALID,0.864453,
2010-03-30, 02:47:04,VALID,918.189,VALID,0,VALID,95.0869,VALID,0,VALID,19.5273,VALID,113,VALID,1.025,
2010-03-30, 02:48:04,VALID,918.136,VALID,0,VALID,95.0411,VALID,0.107441,VALID,19.5063,VALID,113,VALID,1.0457,
2010-03-30, 02:49:04,VALID,918.158,VALID,0,VALID,95.1479,VALID,0,VALID,19.5273,VALID,113,VALID,1.08008,
2010-03-30, 02:50:04,VALID,918.138,VALID,0,VALID,95.0792,VALID,0,VALID,19.5078,VALID,113,VALID,1.0293,
2010-03-30, 02:51:04,VALID,918.124,VALID,0,VALID,95.1097,VALID,0,VALID,19.5273,VALID,113,VALID,1.00742,
2010-03-30, 02:52:04,VALID,918.157,VALID,0,VALID,95.1707,VALID,0.107441,VALID,19.5468,VALID,113,VALID,0.771094,
2010-03-30, 02:53:04,VALID,918.159,VALID,0,VALID,95.1479,VALID,0,VALID,19.5663,VALID,113,VALID,0.409375,
2010-03-30, 02:54:04,VALID,918.191,VALID,0,VALID,95.1174,VALID,0,VALID,19.5453,VALID,113,VALID,0.593359,
2010-03-30, 02:55:04,VALID,918.19,VALID,0,VALID,95.0411,VALID,0,VALID,19.5858,VALID,113,VALID,0.323438,
2010-03-30, 02:56:04,VALID,918.175,VALID,0,VALID,95.0488,VALID,0,VALID,19.5858,VALID,113,VALID,0.362109,
2010-03-30, 02:57:04,VALID,918.163,VALID,0,VALID,95.0488,VALID,0,VALID,19.5858,VALID,113,VALID,0.632813,
2010-03-30, 02:58:04,VALID,918.158,VALID,0,VALID,95.0869,VALID,0,VALID,19.5858,VALID,113,VALID,0.7875,
2010-03-30, 02:59:04,VALID,918.153,VALID,0,VALID,95.1174,VALID,0,VALID,19.5858,VALID,113,VALID,1.08477,
2010-03-30, 03:00:04,VALID,918.122,VALID,0,VALID,95.2393,VALID,0,VALID,19.5663,VALID,113,VALID,0.817187,
2010-03-30, 03:01:04,VALID,918.099,VALID,0,VALID,95.3079,VALID,0,VALID,19.5273,VALID,113,VALID,0.753516,
2010-03-30, 03:02:04,VALID,918.081,VALID,0,VALID,95.4452,VALID,0,VALID,19.4883,VALID,113,VALID,1.19727,
2010-03-30, 03:03:04,VALID,918.072,VALID,0,VALID,95.6434,VALID,0,VALID,19.4703,VALID,113,VALID,0.958203,
2010-03-30, 03:04:04,VALID,918.034,VALID,0,VALID,95.6739,VALID,0,VALID,19.4493,VALID,113,VALID,1.06562,
2010-03-30, 03:05:04,VALID,918.033,VALID,0,VALID,95.834,VALID,0,VALID,19.4493,VALID,113,VALID,1.00391,
2010-03-30, 03:06:04,VALID,918.031,VALID,0,VALID,95.9026,VALID,0,VALID,19.4298,VALID,113,VALID,0.964844,
2010-03-30, 03:07:04,VALID,917.999,VALID,0,VALID,96.0093,VALID,0,VALID,19.4298,VALID,113,VALID,1.05313,
2010-03-30, 03:08:04,VALID,918.03,VALID,0,VALID,96.0474,VALID,0,VALID,19.4103,VALID,113,VALID,1.15156,
2010-03-30, 03:09:04,VALID,918.029,VALID,0,VALID,96.0779,VALID,0,VALID,19.4298,VALID,113,VALID,1.19727,
2010-03-30, 03:10:04,VALID,918.001,VALID,0,VALID,96.1236,VALID,0.107441,VALID,19.4298,VALID,113,VALID,1.00078,
2010-03-30, 03:11:04,VALID,918.021,VALID,0,VALID,96.1313,VALID,0,VALID,19.4103,VALID,113,VALID,0.935938,
2010-03-30, 03:12:04,VALID,917.981,VALID,0,VALID,96.1618,VALID,0,VALID,19.4103,VALID,113,VALID,0.610547,
2010-03-30, 03:13:04,VALID,917.957,VALID,0,VALID,96.1084,VALID,0,VALID,19.4298,VALID,113,VALID,0.858203,
2010-03-30, 03:14:04,VALID,917.993,VALID,0,VALID,96.0932,VALID,0,VALID,19.4313,VALID,113,VALID,0.836719,
2010-03-30, 03:15:04,VALID,917.99,VALID,0,VALID,96.0627,VALID,0,VALID,19.3908,VALID,113,VALID,1.18281,
2010-03-30, 03:16:04,VALID,917.96,VALID,0,VALID,96.0779,VALID,0.107441,VALID,19.3893,VALID,113,VALID,1.18516,
2010-03-30, 03:17:04,VALID,917.961,VALID,0,VALID,96.0627,VALID,0.107441,VALID,19.3893,VALID,113,VALID,1.27148,
2010-03-30, 03:18:04,VALID,917.944,VALID,0,VALID,96.055,VALID,0.107441,VALID,19.3893,VALID,113,VALID,1.05625,
2010-03-30, 03:19:04,VALID,917.993,VALID,0,VALID,96.0245,VALID,0.107441,VALID,19.4088,VALID,113,VALID,1.18008,
2010-03-30, 03:20:04,VALID,917.982,VALID,0,VALID,96.0093,VALID,0.107441,VALID,19.4283,VALID,113,VALID,0.979688,
2010-03-30, 03:21:04,VALID,917.98,VALID,0,VALID,95.9407,VALID,0.107441,VALID,19.4283,VALID,113,VALID,1.08398,
2010-03-30, 03:22:04,VALID,917.982,VALID,0,VALID,95.9254,VALID,0.107441,VALID,19.4478,VALID,113,VALID,0.786328,
2010-03-30, 03:23:04,VALID,917.987,VALID,0,VALID,95.8416,VALID,0,VALID,19.4478,VALID,113,VALID,1.13711,
2010-03-30, 03:24:04,VALID,917.964,VALID,0,VALID,95.7654,VALID,0.107441,VALID,19.4478,VALID,113,VALID,0.9875,
2010-03-30, 03:25:04,VALID,917.975,VALID,0,VALID,95.7044,VALID,0.107441,VALID,19.4673,VALID,113,VALID,0.898047,
2010-03-30, 03:26:04,VALID,917.966,VALID,0,VALID,95.6739,VALID,0.107441,VALID,19.4673,VALID,113,VALID,0.31875,
2010-03-30, 03:27:04,VALID,917.967,VALID,0,VALID,95.6586,VALID,0.107441,VALID,19.4883,VALID,113,VALID,0.658984,
2010-03-30, 03:28:04,VALID,917.987,VALID,0,VALID,95.529,VALID,0.107441,VALID,19.4883,VALID,113,VALID,0.588281,
2010-03-30, 03:29:04,VALID,917.94,VALID,0,VALID,95.4223,VALID,0.107441,VALID,19.4673,VALID,113,VALID,0.724219,
2010-03-30, 03:30:04,VALID,917.95,VALID,0,VALID,95.3308,VALID,0.107441,VALID,19.4868,VALID,113,VALID,0.899609,
2010-03-30, 03:31:04,VALID,917.946,VALID,0,VALID,95.2546,VALID,0,VALID,19.4883,VALID,113,VALID,0.848437,
2010-03-30, 03:32:04,VALID,917.943,VALID,0,VALID,95.186,VALID,0,VALID,19.4868,VALID,113,VALID,0.75625,
2010-03-30, 03:33:04,VALID,917.926,VALID,0,VALID,95.1631,VALID,0,VALID,19.5078,VALID,113,VALID,0.713672,
2010-03-30, 03:34:04,VALID,917.913,VALID,0,VALID,95.0716,VALID,0,VALID,19.5273,VALID,113,VALID,0.669141,
2010-03-30, 03:35:04,VALID,917.879,VALID,0,VALID,95.0106,VALID,0,VALID,19.5468,VALID,113,VALID,0.554297,
2010-03-30, 03:36:04,VALID,917.869,VALID,0,VALID,94.881,VALID,0,VALID,19.5663,VALID,113,VALID,0.795703,
2010-03-30, 03:37:04,VALID,917.88,VALID,0,VALID,94.7591,VALID,0,VALID,19.5858,VALID,113,VALID,0.517187,
2010-03-30, 03:38:04,VALID,917.854,VALID,0,VALID,94.7209,VALID,0,VALID,19.5858,VALID,113,VALID,0.553906,
2010-03-30, 03:39:04,VALID,917.822,VALID,0,VALID,94.66,VALID,0,VALID,19.5663,VALID,113,VALID,0.710938,
2010-03-30, 03:40:04,VALID,917.847,VALID,0,VALID,94.6676,VALID,0,VALID,19.5663,VALID,113,VALID,0.903906,
2010-03-30, 03:41:04,VALID,917.822,VALID,0,VALID,94.6752,VALID,0,VALID,19.5468,VALID,113,VALID,0.934766,
2010-03-30, 03:42:04,VALID,917.788,VALID,0,VALID,94.7362,VALID,0,VALID,19.5663,VALID,113,VALID,0.709766,
2010-03-30, 03:43:04,VALID,917.784,VALID,0,VALID,94.7819,VALID,0,VALID,19.5453,VALID,113,VALID,0.787109,
2010-03-30, 03:44:04,VALID,917.786,VALID,0,VALID,94.7362,VALID,0,VALID,19.5273,VALID,113,VALID,0.904688,